| time (UTC) | temp F | wind direction | speed MPH | gust MPH | rain 1hr in | rain 24hr in | rain mn in | humidity % | barometer mb |
| 20260905214004 | 65 | 148 | 0.0 | 2.0 | 0.00 | 0.14 | 0.14 | 93 | 1010.5 |
| 20260905213503 | 65 | 145 | 0.0 | 2.0 | 0.00 | 0.14 | 0.14 | 94 | 1010.4 |
| 20260905213003 | 65 | 141 | 0.0 | 1.0 | 0.00 | 0.14 | 0.14 | 94 | 1010.4 |
| 20260905212004 | 65 | 112 | 0.0 | 3.0 | 0.00 | 0.14 | 0.14 | 94 | 1010.3 |
| 20260905211503 | 65 | 76 | 0.0 | 3.0 | 0.00 | 0.14 | 0.14 | 95 | 1010.3 |
| 20260905211004 | 65 | 77 | 0.0 | 3.0 | 0.00 | 0.14 | 0.14 | 94 | 1010.3 |
| 20260905210504 | 65 | 81 | 0.0 | 3.0 | 0.00 | 0.14 | 0.14 | 93 | 1010.4 |
| 20260905210004 | 65 | 148 | 0.0 | 3.0 | 0.00 | 0.14 | 0.14 | 94 | 1010.3 |
| 20260905205003 | 65 | 82 | 0.0 | 3.0 | 0.00 | 0.14 | 0.14 | 94 | 1010.4 |
| 20260905204504 | 65 | 95 | 0.0 | 3.0 | 0.00 | 0.14 | 0.14 | 94 | 1010.2 |
| 20260905204004 | 65 | 67 | 0.0 | 3.0 | 0.00 | 0.14 | 0.14 | 94 | 1010.2 |
| 20260905203504 | 64 | 95 | 0.0 | 4.0 | 0.01 | 0.14 | 0.14 | 94 | 1010.3 |
| 20260905203003 | 65 | 140 | 0.0 | 4.0 | 0.03 | 0.14 | 0.14 | 94 | 1010.2 |
| 20260905202503 | 64 | 104 | 0.0 | 4.0 | 0.06 | 0.14 | 0.14 | 95 | 1010.2 |
| 20260905202003 | 64 | 80 | 0.0 | 2.0 | 0.12 | 0.14 | 0.14 | 95 | 1010.2 |
| 20260905201503 | 64 | 72 | 0.0 | 1.0 | 0.14 | 0.14 | 0.14 | 96 | 1010.2 |
| 20260905201003 | 64 | 72 | 0.0 | 3.0 | 0.14 | 0.14 | 0.14 | 96 | 1010.1 |
| 20260905200503 | 64 | 73 | 0.0 | 3.0 | 0.14 | 0.14 | 0.14 | 95 | 1010.1 |
| 20260905200004 | 64 | 124 | 0.0 | 2.0 | 0.14 | 0.14 | 0.14 | 95 | 1010.1 |
| 20260905195004 | 64 | 119 | 0.0 | 2.0 | 0.14 | 0.14 | 0.14 | 94 | 1010.1 |
| 20260905194503 | 64 | 185 | 0.0 | 3.0 | 0.14 | 0.14 | 0.14 | 93 | 1010.1 |
| 20260905194003 | 65 | 129 | 0.0 | 6.0 | 0.14 | 0.14 | 0.14 | 91 | 1010.0 |
| 20260905193004 | 66 | 128 | 0.0 | 3.0 | 0.11 | 0.11 | 0.11 | 86 | 1010.1 |
| 20260905192503 | 68 | 70 | 1.0 | 6.0 | 0.07 | 0.07 | 0.07 | 84 | 1010.0 |
| 20260905192003 | 68 | 77 | 2.0 | 9.0 | 0.01 | 0.01 | 0.01 | 80 | 1010.1 |
| 20260905191503 | 70 | 84 | 2.0 | 10.0 | 0.00 | 0.00 | 0.00 | 76 | 1009.9 |
| 20260905191004 | 71 | 87 | 1.0 | 10.0 | 0.00 | 0.00 | 0.00 | 74 | 1009.8 |
| 20260905190004 | 72 | 130 | 1.0 | 6.0 | 0.00 | 0.00 | 0.00 | 74 | 1009.5 |
| 20260905185503 | 72 | 140 | 1.0 | 6.0 | 0.00 | 0.00 | 0.00 | 75 | 1009.5 |
| 20260905183504 | 73 | 138 | 1.0 | 6.0 | 0.00 | 0.00 | 0.00 | 73 | 1009.3 |
| 20260905183004 | 73 | 147 | 2.0 | 7.0 | 0.00 | 0.00 | 0.00 | 73 | 1009.3 |
| 20260905182503 | 73 | 117 | 2.0 | 7.0 | 0.00 | 0.00 | 0.00 | 73 | 1009.4 |
| 20260905182003 | 73 | 75 | 1.0 | 6.0 | 0.00 | 0.00 | 0.00 | 76 | 1009.4 |
| 20260905181503 | 72 | 79 | 1.0 | 4.0 | 0.00 | 0.00 | 0.00 | 75 | 1009.3 |
| 20260905180503 | 72 | 95 | 1.0 | 5.0 | 0.00 | 0.00 | 0.00 | 76 | 1009.4 |
| 20260905180004 | 72 | 149 | 1.0 | 4.0 | 0.00 | 0.00 | 0.00 | 79 | 1009.5 |
| 20260905175503 | 71 | 106 | 1.0 | 3.0 | 0.00 | 0.00 | 0.00 | 79 | 1009.5 |
| 20260905175003 | 71 | 87 | 1.0 | 10.0 | 0.00 | 0.00 | 0.00 | 78 | 1009.5 |
| 20260905174503 | 71 | 88 | 2.0 | 10.0 | 0.00 | 0.00 | 0.00 | 78 | 1009.5 |
| 20260905174003 | 71 | 112 | 2.0 | 8.0 | 0.00 | 0.00 | 0.00 | 79 | 1009.4 |
| 20260905173503 | 71 | 135 | 3.0 | 8.0 | 0.00 | 0.00 | 0.00 | 78 | 1009.4 |
| 20260905173004 | 72 | 129 | 3.0 | 8.0 | 0.00 | 0.00 | 0.00 | 77 | 1009.5 |
| 20260905172503 | 72 | 102 | 2.0 | 7.0 | 0.00 | 0.00 | 0.00 | 76 | 1009.4 |
| 20260905172004 | 71 | 92 | 1.0 | 7.0 | 0.00 | 0.00 | 0.00 | 79 | 1009.4 |
| 20260905171503 | 71 | 61 | 1.0 | 3.0 | 0.00 | 0.00 | 0.00 | 76 | 1009.4 |
| 20260905171004 | 71 | 74 | 2.0 | 7.0 | 0.00 | 0.00 | 0.00 | 75 | 1009.3 |
| 20260905170503 | 71 | 86 | 2.0 | 7.0 | 0.00 | 0.00 | 0.00 | 74 | 1009.4 |
| 20260905170003 | 71 | 86 | 2.0 | 6.0 | 0.00 | 0.00 | 0.00 | 76 | 1009.4 |
| 20260905165503 | 71 | 48 | 2.0 | 6.0 | 0.00 | 0.00 | 0.00 | 75 | 1009.4 |
| 20260905165004 | 71 | 61 | 2.0 | 7.0 | 0.00 | 0.00 | 0.00 | 75 | 1009.5 |
| 20260905164504 | 70 | 83 | 2.0 | 8.0 | 0.00 | 0.00 | 0.00 | 77 | 1009.5 |
| 20260905164004 | 70 | 94 | 2.0 | 8.0 | 0.00 | 0.00 | 0.00 | 75 | 1009.5 |
| 20260905163503 | 71 | 113 | 2.0 | 7.0 | 0.00 | 0.00 | 0.00 | 76 | 1009.4 |
| 20260905163003 | 71 | 107 | 2.0 | 9.0 | 0.00 | 0.00 | 0.00 | 74 | 1009.4 |
| 20260905162503 | 71 | 95 | 2.0 | 9.0 | 0.00 | 0.00 | 0.00 | 74 | 1009.4 |
| 20260905162004 | 71 | 99 | 1.0 | 7.0 | 0.00 | 0.00 | 0.00 | 75 | 1009.3 |
| 20260905161503 | 71 | 111 | 1.0 | 7.0 | 0.00 | 0.00 | 0.00 | 75 | 1009.4 |
| 20260905161004 | 71 | 98 | 1.0 | 4.0 | 0.00 | 0.00 | 0.00 | 76 | 1009.4 |
| 20260905160503 | 71 | 75 | 1.0 | 4.0 | 0.00 | 0.00 | 0.00 | 75 | 1009.3 |
| 20260905160004 | 71 | 73 | 1.0 | 4.0 | 0.00 | 0.00 | 0.00 | 75 | 1009.4 |
| 20260905155503 | 71 | 55 | 1.0 | 3.0 | 0.00 | 0.00 | 0.00 | 76 | 1009.5 |
| 20260905155003 | 70 | 319 | 1.0 | 6.0 | 0.00 | 0.00 | 0.00 | 74 | 1009.4 |
| 20260905154503 | 70 | 79 | 1.0 | 7.0 | 0.00 | 0.00 | 0.00 | 74 | 1009.4 |
| 20260905154004 | 70 | 94 | 2.0 | 7.0 | 0.00 | 0.00 | 0.00 | 76 | 1009.3 |
| 20260905153504 | 70 | 106 | 1.0 | 6.0 | 0.00 | 0.00 | 0.00 | 76 | 1009.3 |
| 20260905153004 | 70 | 95 | 1.0 | 6.0 | 0.00 | 0.00 | 0.00 | 75 | 1009.5 |
| 20260905152503 | 70 | 80 | 1.0 | 4.0 | 0.00 | 0.00 | 0.00 | 75 | 1009.5 |
| 20260905152003 | 70 | 90 | 1.0 | 4.0 | 0.00 | 0.00 | 0.00 | 76 | 1009.5 |
| 20260905151503 | 70 | 64 | 1.0 | 4.0 | 0.00 | 0.00 | 0.00 | 77 | 1009.5 |
| 20260905151004 | 70 | 50 | 1.0 | 4.0 | 0.00 | 0.00 | 0.00 | 77 | 1009.5 |
| 20260905150004 | 70 | 90 | 0.0 | 3.0 | 0.00 | 0.00 | 0.00 | 77 | 1009.5 |
| 20260905145503 | 69 | 86 | 0.0 | 2.0 | 0.00 | 0.00 | 0.00 | 79 | 1009.5 |
| 20260905145003 | 69 | 78 | 1.0 | 4.0 | 0.00 | 0.00 | 0.00 | 79 | 1009.5 |
| 20260905144503 | 69 | 83 | 1.0 | 4.0 | 0.00 | 0.00 | 0.00 | 78 | 1009.4 |
| 20260905144004 | 69 | 104 | 1.0 | 4.0 | 0.00 | 0.00 | 0.00 | 79 | 1009.4 |
| 20260905143504 | 69 | 111 | 0.0 | 3.0 | 0.00 | 0.00 | 0.00 | 80 | 1009.4 |
| 20260905142503 | 69 | 117 | 1.0 | 4.0 | 0.00 | 0.00 | 0.00 | 80 | 1009.5 |
| 20260905142003 | 69 | 104 | 1.0 | 5.0 | 0.00 | 0.00 | 0.00 | 80 | 1009.5 |
| 20260905141503 | 69 | 88 | 1.0 | 5.0 | 0.00 | 0.00 | 0.00 | 79 | 1009.4 |
| 20260905141003 | 69 | 53 | 1.0 | 5.0 | 0.00 | 0.00 | 0.00 | 80 | 1009.4 |
| 20260905140503 | 70 | 38 | 0.0 | 4.0 | 0.00 | 0.00 | 0.00 | 78 | 1009.3 |
| 20260905135004 | 70 | 49 | 1.0 | 4.0 | 0.00 | 0.00 | 0.00 | 78 | 1009.2 |
| 20260905134503 | 70 | 102 | 1.0 | 6.0 | 0.00 | 0.00 | 0.00 | 77 | 1009.1 |
| 20260905133503 | 70 | 92 | 1.0 | 5.0 | 0.00 | 0.00 | 0.00 | 80 | 1009.1 |
| 20260905133004 | 69 | 98 | 1.0 | 5.0 | 0.00 | 0.00 | 0.00 | 80 | 1009.0 |
| 20260905132503 | 69 | 288 | 1.0 | 5.0 | 0.00 | 0.00 | 0.00 | 82 | 1008.9 |
| 20260905132004 | 68 | 298 | 1.0 | 5.0 | 0.00 | 0.00 | 0.00 | 85 | 1008.8 |
| 20260905131504 | 67 | 322 | 0.0 | 2.0 | 0.00 | 0.00 | 0.00 | 87 | 1008.8 |
| 20260905131003 | 66 | 326 | 0.0 | 2.0 | 0.00 | 0.00 | 0.00 | 86 | 1008.7 |
| 20260905130503 | 66 | 13 | 0.0 | 1.0 | 0.00 | 0.00 | 0.00 | 90 | 1008.9 |
| 20260905130004 | 66 | 357 | 0.0 | 3.0 | 0.00 | 0.00 | 0.00 | 87 | 1008.9 |
| 20260905125504 | 65 | 5 | 0.0 | 3.0 | 0.00 | 0.00 | 0.00 | 89 | 1008.9 |
| 20260905124503 | 65 | 138 | 0.0 | 2.0 | 0.00 | 0.00 | 0.00 | 89 | 1008.9 |
| 20260905124003 | 65 | 127 | 0.0 | 4.0 | 0.00 | 0.00 | 0.00 | 91 | 1008.8 |
| 20260905123503 | 65 | 104 | 0.0 | 4.0 | 0.00 | 0.00 | 0.00 | 91 | 1008.8 |
| 20260905123003 | 64 | 55 | 0.0 | 2.0 | 0.00 | 0.00 | 0.00 | 92 | 1008.7 |
| 20260905122503 | 64 | 318 | 0.0 | 1.0 | 0.00 | 0.00 | 0.00 | 93 | 1008.6 |
| 20260905121504 | 63 | 318 | 0.0 | 2.0 | 0.00 | 0.00 | 0.00 | 95 | 1008.5 |
| 20260905121004 | 63 | 318 | 0.0 | 2.0 | 0.00 | 0.00 | 0.00 | 96 | 1008.4 |
| 20260905120503 | 62 | 0 | 0.0 | 0.0 | 0.00 | 0.00 | 0.00 | 97 | 1008.4 |
| 20260905120003 | 62 | 318 | 0.0 | 1.0 | 0.00 | 0.00 | 0.00 | 97 | 1008.4 |
| 20260905115503 | 62 | 318 | 0.0 | 1.0 | 0.00 | 0.00 | 0.00 | 98 | 1008.4 |
| 20260905115004 | 62 | 0 | 0.0 | 0.0 | 0.00 | 0.00 | 0.00 | 98 | 1008.4 |
| 20260905114504 | 61 | 0 | 0.0 | 0.0 | 0.00 | 0.00 | 0.00 | 98 | 1008.3 |
| 20260905114004 | 61 | 0 | 0.0 | 0.0 | 0.00 | 0.00 | 0.00 | 98 | 1008.3 |
| 20260905113503 | 61 | 0 | 0.0 | 0.0 | 0.00 | 0.00 | 0.00 | 98 | 1008.2 |
| 20260905113004 | 61 | 0 | 0.0 | 0.0 | 0.00 | 0.00 | 0.00 | 98 | 1008.2 |
| 20260905112503 | 61 | 0 | 0.0 | 0.0 | 0.00 | 0.00 | 0.00 | 98 | 1008.2 |
| 20260905112003 | 60 | 0 | 0.0 | 0.0 | 0.00 | 0.00 | 0.00 | 98 | 1008.1 |
| 20260905111503 | 60 | 0 | 0.0 | 0.0 | 0.00 | 0.00 | 0.00 | 98 | 1008.1 |
| 20260905111003 | 60 | 0 | 0.0 | 0.0 | 0.00 | 0.00 | 0.00 | 98 | 1008.1 |
| 20260905110503 | 60 | 0 | 0.0 | 0.0 | 0.00 | 0.00 | 0.00 | 98 | 1008.0 |
| 20260905110004 | 60 | 0 | 0.0 | 0.0 | 0.00 | 0.00 | 0.00 | 97 | 1008.0 |
| 20260905105504 | 60 | 0 | 0.0 | 0.0 | 0.00 | 0.00 | 0.00 | 97 | 1007.9 |
| 20260905104504 | 60 | 0 | 0.0 | 0.0 | 0.00 | 0.00 | 0.00 | 98 | 1007.8 |
| 20260905104004 | 59 | 0 | 0.0 | 0.0 | 0.00 | 0.00 | 0.00 | 97 | 1007.8 |
| 20260905103503 | 59 | 0 | 0.0 | 0.0 | 0.00 | 0.00 | 0.00 | 97 | 1007.8 |
| 20260905102004 | 59 | 0 | 0.0 | 0.0 | 0.00 | 0.00 | 0.00 | 97 | 1007.7 |
| 20260905101504 | 59 | 0 | 0.0 | 0.0 | 0.00 | 0.00 | 0.00 | 96 | 1007.6 |
| 20260905101003 | 59 | 0 | 0.0 | 0.0 | 0.00 | 0.00 | 0.00 | 96 | 1007.5 |
| 20260905100503 | 59 | 0 | 0.0 | 0.0 | 0.00 | 0.00 | 0.00 | 96 | 1007.5 |
| 20260905100004 | 60 | 0 | 0.0 | 0.0 | 0.00 | 0.00 | 0.00 | 96 | 1007.5 |
| 20260905095503 | 60 | 0 | 0.0 | 0.0 | 0.00 | 0.00 | 0.00 | 96 | 1007.5 |
| 20260905095004 | 60 | 0 | 0.0 | 0.0 | 0.00 | 0.00 | 0.00 | 96 | 1007.5 |
| 20260905094503 | 60 | 0 | 0.0 | 0.0 | 0.00 | 0.00 | 0.00 | 96 | 1007.5 |
| 20260905094003 | 60 | 0 | 0.0 | 0.0 | 0.00 | 0.00 | 0.00 | 96 | 1007.5 |
| 20260905093503 | 60 | 0 | 0.0 | 0.0 | 0.00 | 0.00 | 0.00 | 96 | 1007.4 |
| 20260905093004 | 60 | 0 | 0.0 | 0.0 | 0.00 | 0.00 | 0.00 | 96 | 1007.4 |
| 20260905092504 | 60 | 0 | 0.0 | 0.0 | 0.00 | 0.00 | 0.00 | 95 | 1007.3 |
| 20260905092003 | 60 | 0 | 0.0 | 0.0 | 0.00 | 0.00 | 0.00 | 96 | 1007.3 |
| 20260905091503 | 60 | 0 | 0.0 | 0.0 | 0.00 | 0.00 | 0.00 | 96 | 1007.2 |
| 20260905091003 | 60 | 0 | 0.0 | 0.0 | 0.00 | 0.00 | 0.00 | 96 | 1007.3 |
| 20260905090004 | 60 | 0 | 0.0 | 0.0 | 0.00 | 0.00 | 0.00 | 95 | 1007.2 |
| 20260905085504 | 60 | 0 | 0.0 | 0.0 | 0.00 | 0.00 | 0.00 | 95 | 1007.1 |
| 20260905084503 | 60 | 0 | 0.0 | 0.0 | 0.00 | 0.00 | 0.00 | 94 | 1007.1 |
| 20260905084003 | 61 | 0 | 0.0 | 0.0 | 0.00 | 0.00 | 0.00 | 94 | 1007.1 |
| 20260905083004 | 61 | 0 | 0.0 | 0.0 | 0.00 | 0.00 | 0.00 | 94 | 1007.1 |
| 20260905082503 | 61 | 0 | 0.0 | 0.0 | 0.00 | 0.00 | 0.00 | 94 | 1007.1 |
| 20260905082003 | 61 | 0 | 0.0 | 0.0 | 0.00 | 0.00 | 0.00 | 94 | 1007.2 |
| 20260905081503 | 61 | 0 | 0.0 | 0.0 | 0.00 | 0.00 | 0.00 | 93 | 1007.2 |
| 20260905081004 | 61 | 0 | 0.0 | 0.0 | 0.00 | 0.00 | 0.00 | 93 | 1007.2 |
| 20260905080504 | 61 | 0 | 0.0 | 0.0 | 0.00 | 0.00 | 0.00 | 93 | 1007.2 |
| 20260905080004 | 62 | 0 | 0.0 | 0.0 | 0.00 | 0.00 | 0.00 | 93 | 1007.1 |
| 20260905075503 | 62 | 318 | 0.0 | 2.0 | 0.00 | 0.00 | 0.00 | 93 | 1007.1 |
| 20260905075004 | 62 | 318 | 0.0 | 2.0 | 0.00 | 0.00 | 0.00 | 93 | 1007.1 |
| 20260905074504 | 62 | 0 | 0.0 | 0.0 | 0.00 | 0.00 | 0.00 | 93 | 1007.2 |
| 20260905074003 | 62 | 0 | 0.0 | 0.0 | 0.00 | 0.00 | 0.00 | 93 | 1007.2 |
| 20260905073503 | 62 | 0 | 0.0 | 0.0 | 0.00 | 0.00 | 0.00 | 93 | 1007.2 |
| 20260905073003 | 62 | 318 | 0.0 | 3.0 | 0.00 | 0.00 | 0.00 | 93 | 1007.2 |
| 20260905072503 | 62 | 318 | 0.0 | 3.0 | 0.00 | 0.00 | 0.00 | 93 | 1007.3 |
| 20260905072004 | 62 | 318 | 0.0 | 2.0 | 0.00 | 0.00 | 0.00 | 93 | 1007.3 |
| 20260905071504 | 62 | 318 | 0.0 | 1.0 | 0.00 | 0.00 | 0.00 | 93 | 1007.3 |
| 20260905071003 | 62 | 318 | 0.0 | 2.0 | 0.00 | 0.00 | 0.00 | 93 | 1007.4 |
| 20260905070503 | 62 | 318 | 0.0 | 2.0 | 0.00 | 0.00 | 0.00 | 93 | 1007.4 |
| 20260905070004 | 62 | 0 | 0.0 | 0.0 | 0.00 | 0.00 | 0.00 | 93 | 1007.4 |
| 20260905065503 | 62 | 318 | 0.0 | 2.0 | 0.00 | 0.00 | 0.00 | 93 | 1007.5 |
| 20260905065003 | 62 | 318 | 0.0 | 2.0 | 0.00 | 0.00 | 0.00 | 93 | 1007.5 |
| 20260905064503 | 62 | 0 | 0.0 | 0.0 | 0.00 | 0.00 | 0.00 | 92 | 1007.5 |
| 20260905064004 | 62 | 313 | 0.0 | 1.0 | 0.00 | 0.00 | 0.00 | 91 | 1007.4 |
| 20260905063503 | 62 | 313 | 0.0 | 1.0 | 0.00 | 0.00 | 0.00 | 92 | 1007.5 |
| 20260905063004 | 62 | 0 | 0.0 | 0.0 | 0.00 | 0.00 | 0.00 | 91 | 1007.6 |
| 20260905062504 | 62 | 0 | 0.0 | 0.0 | 0.00 | 0.00 | 0.00 | 91 | 1007.5 |
| 20260905062004 | 63 | 0 | 0.0 | 0.0 | 0.00 | 0.00 | 0.00 | 90 | 1007.5 |
| 20260905061503 | 63 | 312 | 0.0 | 1.0 | 0.00 | 0.01 | 0.00 | 90 | 1007.6 |
| 20260905061003 | 63 | 312 | 0.0 | 1.0 | 0.00 | 0.01 | 0.00 | 90 | 1007.6 |
| 20260905060503 | 63 | 0 | 0.0 | 0.0 | 0.00 | 0.01 | 0.00 | 90 | 1007.5 |
| 20260905060004 | 63 | 0 | 0.0 | 0.0 | 0.00 | 0.01 | 0.00 | 89 | 1007.6 |
| 20260905055503 | 63 | 0 | 0.0 | 0.0 | 0.00 | 0.01 | 0.00 | 89 | 1007.7 |
| 20260905055004 | 64 | 0 | 0.0 | 0.0 | 0.00 | 0.01 | 0.00 | 87 | 1007.7 |
| 20260905054503 | 64 | 0 | 0.0 | 0.0 | 0.00 | 0.01 | 0.00 | 87 | 1007.7 |
| 20260905054004 | 64 | 0 | 0.0 | 0.0 | 0.00 | 0.01 | 0.00 | 87 | 1007.7 |
| 20260905053503 | 64 | 0 | 0.0 | 0.0 | 0.00 | 0.01 | 0.00 | 86 | 1007.7 |
| 20260905053004 | 64 | 0 | 0.0 | 0.0 | 0.00 | 0.01 | 0.00 | 86 | 1007.6 |
| 20260905052503 | 65 | 0 | 0.0 | 0.0 | 0.00 | 0.01 | 0.00 | 86 | 1007.7 |
| 20260905052003 | 65 | 0 | 0.0 | 0.0 | 0.00 | 0.01 | 0.00 | 86 | 1007.7 |
| 20260905051504 | 65 | 313 | 0.0 | 1.0 | 0.00 | 0.01 | 0.00 | 85 | 1007.6 |
| 20260905051003 | 65 | 313 | 0.0 | 2.0 | 0.00 | 0.01 | 0.00 | 85 | 1007.6 |
| 20260905050503 | 65 | 314 | 0.0 | 2.0 | 0.00 | 0.01 | 0.00 | 85 | 1007.7 |
| 20260905045504 | 65 | 321 | 0.0 | 4.0 | 0.00 | 0.01 | 0.00 | 85 | 1007.6 |
| 20260905045004 | 65 | 0 | 0.0 | 0.0 | 0.00 | 0.01 | 0.00 | 85 | 1007.5 |
| 20260905044503 | 65 | 0 | 0.0 | 0.0 | 0.00 | 0.01 | 0.00 | 86 | 1007.6 |
| 20260905044003 | 65 | 0 | 0.0 | 0.0 | 0.00 | 0.01 | 0.00 | 86 | 1007.5 |
| 20260905043504 | 65 | 0 | 0.0 | 0.0 | 0.00 | 0.01 | 0.00 | 86 | 1007.6 |
| 20260905043004 | 64 | 0 | 0.0 | 0.0 | 0.00 | 0.01 | 0.00 | 89 | 1007.7 |
| 20260905042503 | 64 | 0 | 0.0 | 0.0 | 0.00 | 0.01 | 0.00 | 90 | 1007.8 |
| 20260905042004 | 64 | 0 | 0.0 | 0.0 | 0.00 | 0.01 | 0.00 | 90 | 1007.7 |
| 20260905041503 | 64 | 0 | 0.0 | 0.0 | 0.00 | 0.01 | 0.00 | 90 | 1007.7 |
| 20260905041004 | 64 | 0 | 0.0 | 0.0 | 0.00 | 0.01 | 0.00 | 90 | 1007.6 |
| 20260905040004 | 65 | 0 | 0.0 | 0.0 | 0.00 | 0.01 | 0.00 | 90 | 1007.5 |
| 20260905035503 | 65 | 0 | 0.0 | 0.0 | 0.00 | 0.01 | 0.01 | 90 | 1007.5 |
| 20260905035004 | 65 | 0 | 0.0 | 0.0 | 0.00 | 0.01 | 0.01 | 90 | 1007.6 |
| 20260905034504 | 65 | 0 | 0.0 | 0.0 | 0.00 | 0.01 | 0.01 | 87 | 1007.6 |
| 20260905034004 | 65 | 0 | 0.0 | 0.0 | 0.00 | 0.01 | 0.01 | 87 | 1007.7 |
| 20260905033503 | 65 | 0 | 0.0 | 0.0 | 0.00 | 0.01 | 0.01 | 87 | 1007.7 |
| 20260905033003 | 65 | 0 | 0.0 | 0.0 | 0.00 | 0.01 | 0.01 | 89 | 1007.8 |
| 20260905032503 | 65 | 0 | 0.0 | 0.0 | 0.00 | 0.01 | 0.01 | 89 | 1007.7 |
| 20260905032004 | 65 | 0 | 0.0 | 0.0 | 0.00 | 0.01 | 0.01 | 89 | 1007.7 |
| 20260905031503 | 65 | 0 | 0.0 | 0.0 | 0.00 | 0.01 | 0.01 | 87 | 1007.7 |
| 20260905030004 | 65 | 0 | 0.0 | 0.0 | 0.00 | 0.01 | 0.01 | 89 | 1007.9 |
| 20260905025503 | 65 | 0 | 0.0 | 0.0 | 0.00 | 0.01 | 0.01 | 90 | 1007.9 |
| 20260905025003 | 65 | 0 | 0.0 | 0.0 | 0.00 | 0.01 | 0.01 | 89 | 1007.9 |
| 20260905024503 | 65 | 0 | 0.0 | 0.0 | 0.00 | 0.01 | 0.01 | 89 | 1007.9 |
| 20260905024004 | 65 | 0 | 0.0 | 0.0 | 0.00 | 0.01 | 0.01 | 89 | 1007.9 |
| 20260905023504 | 65 | 0 | 0.0 | 0.0 | 0.00 | 0.01 | 0.01 | 89 | 1007.9 |
| 20260905023004 | 65 | 0 | 0.0 | 0.0 | 0.00 | 0.01 | 0.01 | 89 | 1008.0 |
| 20260905022004 | 65 | 0 | 0.0 | 0.0 | 0.00 | 0.01 | 0.01 | 89 | 1008.1 |
| 20260905021503 | 65 | 0 | 0.0 | 0.0 | 0.00 | 0.01 | 0.01 | 89 | 1008.1 |
| 20260905021003 | 65 | 0 | 0.0 | 0.0 | 0.00 | 0.01 | 0.01 | 89 | 1008.2 |
| 20260905020503 | 65 | 0 | 0.0 | 0.0 | 0.00 | 0.01 | 0.01 | 89 | 1008.2 |
| 20260905020004 | 65 | 0 | 0.0 | 0.0 | 0.00 | 0.01 | 0.01 | 89 | 1008.2 |
| 20260905015504 | 65 | 0 | 0.0 | 0.0 | 0.00 | 0.01 | 0.01 | 89 | 1008.3 |
| 20260905014004 | 65 | 0 | 0.0 | 0.0 | 0.00 | 0.01 | 0.01 | 90 | 1008.4 |
| 20260905013503 | 66 | 0 | 0.0 | 0.0 | 0.00 | 0.01 | 0.01 | 89 | 1008.4 |
| 20260905012504 | 66 | 0 | 0.0 | 0.0 | 0.00 | 0.01 | 0.01 | 90 | 1008.3 |
| 20260905012004 | 66 | 0 | 0.0 | 0.0 | 0.00 | 0.01 | 0.01 | 89 | 1008.3 |
| 20260905011504 | 66 | 0 | 0.0 | 0.0 | 0.00 | 0.01 | 0.01 | 89 | 1008.4 |
| 20260905010503 | 66 | 0 | 0.0 | 0.0 | 0.00 | 0.01 | 0.01 | 89 | 1008.4 |
| 20260905010004 | 66 | 0 | 0.0 | 0.0 | 0.00 | 0.01 | 0.01 | 89 | 1008.3 |
| 20260905005504 | 66 | 0 | 0.0 | 0.0 | 0.00 | 0.01 | 0.01 | 89 | 1008.3 |
| 20260905005004 | 66 | 0 | 0.0 | 0.0 | 0.00 | 0.01 | 0.01 | 89 | 1008.3 |
| 20260905004503 | 66 | 0 | 0.0 | 0.0 | 0.00 | 0.01 | 0.01 | 89 | 1008.3 |
| 20260905004003 | 66 | 0 | 0.0 | 0.0 | 0.00 | 0.01 | 0.01 | 87 | 1008.2 |
| 20260905003004 | 67 | 0 | 0.0 | 0.0 | 0.00 | 0.01 | 0.01 | 87 | 1008.2 |
| 20260905002503 | 67 | 0 | 0.0 | 0.0 | 0.00 | 0.01 | 0.01 | 86 | 1008.2 |
| 20260905002004 | 67 | 0 | 0.0 | 0.0 | 0.00 | 0.01 | 0.01 | 86 | 1008.2 |
| 20260905001503 | 68 | 0 | 0.0 | 0.0 | 0.00 | 0.01 | 0.01 | 86 | 1008.2 |
| 20260905001003 | 68 | 0 | 0.0 | 0.0 | 0.00 | 0.01 | 0.01 | 85 | 1008.1 |
| 20260905000503 | 68 | 0 | 0.0 | 0.0 | 0.00 | 0.01 | 0.01 | 84 | 1008.1 |
| 20260905000004 | 69 | 0 | 0.0 | 0.0 | 0.00 | 0.01 | 0.01 | 83 | 1008.1 |
| 20260904235504 | 69 | 0 | 0.0 | 0.0 | 0.00 | 0.01 | 0.01 | 82 | 1008.0 |
| 20260904235004 | 69 | 0 | 0.0 | 0.0 | 0.00 | 0.01 | 0.01 | 82 | 1008.0 |
| 20260904234503 | 70 | 0 | 0.0 | 0.0 | 0.00 | 0.01 | 0.01 | 81 | 1007.8 |
| 20260904233503 | 71 | 0 | 0.0 | 0.0 | 0.00 | 0.01 | 0.01 | 79 | 1007.7 |
| 20260904233004 | 71 | 0 | 0.0 | 0.0 | 0.00 | 0.01 | 0.01 | 78 | 1007.6 |
| 20260904232503 | 71 | 0 | 0.0 | 0.0 | 0.00 | 0.01 | 0.01 | 77 | 1007.6 |
| 20260904232004 | 72 | 0 | 0.0 | 0.0 | 0.00 | 0.01 | 0.01 | 77 | 1007.7 |
| 20260904231503 | 72 | 0 | 0.0 | 0.0 | 0.00 | 0.01 | 0.01 | 76 | 1007.5 |
| 20260904231004 | 73 | 0 | 0.0 | 0.0 | 0.00 | 0.01 | 0.01 | 76 | 1007.5 |
| 20260904230503 | 73 | 0 | 0.0 | 0.0 | 0.00 | 0.01 | 0.01 | 76 | 1007.5 |
| 20260904225503 | 73 | 0 | 0.0 | 0.0 | 0.00 | 0.01 | 0.01 | 75 | 1007.5 |
| 20260904225003 | 74 | 0 | 0.0 | 0.0 | 0.00 | 0.01 | 0.01 | 77 | 1007.5 |
| 20260904223503 | 75 | 0 | 0.0 | 0.0 | 0.00 | 0.01 | 0.01 | 73 | 1007.5 |
| 20260904223004 | 75 | 0 | 0.0 | 0.0 | 0.00 | 0.01 | 0.01 | 73 | 1007.4 |
| 20260904222004 | 76 | 0 | 0.0 | 0.0 | 0.00 | 0.01 | 0.01 | 69 | 1007.4 |
| 20260904221004 | 77 | 0 | 0.0 | 0.0 | 0.00 | 0.01 | 0.01 | 70 | 1007.3 |
| 20260904220503 | 77 | 62 | 0.0 | 2.0 | 0.00 | 0.01 | 0.01 | 66 | 1007.3 |
| 20260904220004 | 78 | 83 | 0.0 | 2.0 | 0.00 | 0.01 | 0.01 | 66 | 1007.4 |
| 20260904215004 | 78 | 267 | 0.0 | 1.0 | 0.00 | 0.01 | 0.01 | 65 | 1007.1 |
| 20260904214503 | 79 | 259 | 0.0 | 3.0 | 0.00 | 0.01 | 0.01 | 62 | 1007.1 |